LVMGN SUMU-SABE

Flight info

Callsign LVMGN
Flight time 0h 40m
Altitude 22000
Route DAGUS DCT UGIMI UGIMI8R
Aircraft SF50/L-SDGRWY/L

Departure

Time 2026-05-07 14:32
Airport Carrasco General Cesáreo L. Berisso International Airport (SUMU)

Arrival

Time 2026-05-07 15:12
Airport Aeroparque Jorge Newbery (SABE)
Time Latitude Longitude Altitude Speed Heading
2026-05-07 14:22 -34.83752 -56.02014 70 ft 0 kts 143°
2026-05-07 14:26 -34.83752 -56.02006 70 ft 1 kts 43°
2026-05-07 14:26 -34.83746 -56.01999 71 ft 2 kts 44°
2026-05-07 14:27 -34.83716 -56.01997 73 ft 6 kts 331°
2026-05-07 14:27 -34.83669 -56.02027 77 ft 7 kts
2026-05-07 14:27 -34.83619 -56.01967 79 ft 13 kts 51°
2026-05-07 14:27 -34.83547 -56.01848 80 ft 19 kts 54°
2026-05-07 14:28 -34.83459 -56.01768 82 ft 13 kts 343°
2026-05-07 14:28 -34.83374 -56.01831 81 ft 17 kts 326°
2026-05-07 14:28 -34.83273 -56.01807 81 ft 18 kts 52°
2026-05-07 14:28 -34.83195 -56.01684 87 ft 18 kts 49°
2026-05-07 14:29 -34.83114 -56.01554 92 ft 20 kts 53°
2026-05-07 14:29 -34.83026 -56.01408 97 ft 22 kts 54°
2026-05-07 14:29 -34.82931 -56.01255 103 ft 20 kts 35°
2026-05-07 14:29 -34.82821 -56.01290 101 ft 16 kts 319°
2026-05-07 14:30 -34.82819 -56.01400 98 ft 11 kts 238°
2026-05-07 14:30 -34.82821 -56.01405 98 ft 0 kts 238°
2026-05-07 14:31 -34.82825 -56.01412 98 ft 12 kts 236°
2026-05-07 14:31 -34.83051 -56.01780 82 ft 92 kts 233°
2026-05-07 14:31 -34.83492 -56.02508 331 ft 120 kts 236°
2026-05-07 14:31 -34.84032 -56.03406 651 ft 142 kts 236°
2026-05-07 14:32 -34.84714 -56.04303 1091 ft 152 kts 215°
2026-05-07 14:32 -34.85723 -56.04909 1302 ft 172 kts 206°
2026-05-07 14:32 -34.86954 -56.05201 1512 ft 196 kts 179°
2026-05-07 14:32 -34.88353 -56.05329 1795 ft 210 kts 193°
2026-05-07 14:33 -34.89804 -56.05835 2081 ft 221 kts 200°
2026-05-07 14:33 -34.91282 -56.06493 2364 ft 230 kts 202°
2026-05-07 14:33 -34.92784 -56.07193 2639 ft 237 kts 202°
2026-05-07 14:33 -34.94342 -56.07922 2920 ft 242 kts 202°
2026-05-07 14:34 -34.95924 -56.08663 3194 ft 246 kts 202°
2026-05-07 14:34 -34.97522 -56.09411 3471 ft 249 kts 202°
2026-05-07 14:34 -34.99133 -56.10166 3746 ft 250 kts 202°
2026-05-07 14:34 -35.00763 -56.10930 4022 ft 252 kts 202°
2026-05-07 14:35 -35.02251 -56.12003 4274 ft 250 kts 228°
2026-05-07 14:35 -35.03128 -56.13815 4549 ft 249 kts 246°
2026-05-07 14:35 -35.03481 -56.15859 4817 ft 248 kts 268°
2026-05-07 14:35 -35.03417 -56.17962 5089 ft 248 kts 274°
2026-05-07 14:36 -35.03273 -56.20056 5365 ft 248 kts 275°
2026-05-07 14:36 -35.03124 -56.22146 5638 ft 248 kts 275°
2026-05-07 14:36 -35.02977 -56.24239 5915 ft 248 kts 274°
2026-05-07 14:36 -35.02828 -56.26349 6189 ft 248 kts 274°
2026-05-07 14:37 -35.02681 -56.28416 6460 ft 247 kts 274°
2026-05-07 14:37 -35.02384 -56.32594 7007 ft 247 kts 274°
2026-05-07 14:37 -35.02234 -56.34695 7283 ft 247 kts 274°
2026-05-07 14:38 -35.02085 -56.36780 7557 ft 246 kts 274°
2026-05-07 14:38 -35.01936 -56.38867 7834 ft 254 kts 274°
2026-05-07 14:38 -35.01779 -56.41049 8132 ft 263 kts 274°
2026-05-07 14:38 -35.01618 -56.43283 8477 ft 267 kts 274°
2026-05-07 14:39 -35.01454 -56.45558 8886 ft 268 kts 274°
2026-05-07 14:39 -35.01291 -56.47810 9266 ft 270 kts 274°
2026-05-07 14:39 -35.01125 -56.50103 9638 ft 271 kts 274°
2026-05-07 14:39 -35.00959 -56.52383 9994 ft 273 kts 274°
2026-05-07 14:40 -35.00789 -56.54706 10344 ft 274 kts 274°
2026-05-07 14:40 -35.00621 -56.56998 10675 ft 275 kts 274°
2026-05-07 14:40 -35.00451 -56.59330 11000 ft 276 kts 274°
2026-05-07 14:40 -35.00280 -56.61665 11313 ft 278 kts 274°
2026-05-07 14:41 -35.00107 -56.64024 11610 ft 279 kts 274°
2026-05-07 14:41 -34.99934 -56.66360 11909 ft 280 kts 275°
2026-05-07 14:41 -34.99757 -56.68751 12209 ft 280 kts 275°
2026-05-07 14:41 -34.99582 -56.71113 12514 ft 280 kts 274°
2026-05-07 14:42 -34.99408 -56.73445 12805 ft 280 kts 274°
2026-05-07 14:42 -34.99231 -56.75816 13109 ft 280 kts 274°
2026-05-07 14:42 -34.99053 -56.78182 13405 ft 279 kts 274°
2026-05-07 14:42 -34.98877 -56.80537 13705 ft 278 kts 274°
2026-05-07 14:43 -34.98702 -56.82848 13988 ft 272 kts 274°
2026-05-07 14:43 -34.98535 -56.85070 14268 ft 254 kts 274°
2026-05-07 14:43 -34.98382 -56.87070 14774 ft 212 kts 274°
2026-05-07 14:43 -34.98319 -56.88311 15773 ft 83 kts 268°
2026-05-07 14:44 -34.98311 -56.89058 14632 ft 137 kts 268°
2026-05-07 14:44 -34.98301 -56.90154 13586 ft 124 kts 269°
2026-05-07 14:44 -34.98293 -56.91176 12711 ft 138 kts 269°
2026-05-07 14:44 -34.98290 -56.92255 11999 ft 112 kts 268°
2026-05-07 14:45 -34.98305 -56.93133 10952 ft 140 kts 265°
2026-05-07 14:45 -34.98371 -56.94282 10074 ft 129 kts 265°
2026-05-07 14:45 -34.98451 -56.95251 9630 ft 94 kts 263°
2026-05-07 14:45 -34.98489 -56.96016 8751 ft 110 kts 266°
2026-05-07 14:46 -34.98583 -56.96931 7643 ft 138 kts 270°
2026-05-07 14:46 -34.98498 -56.98042 7301 ft 122 kts 274°
2026-05-07 14:46 -34.98425 -56.99049 7110 ft 120 kts 273°
2026-05-07 14:46 -34.98373 -57.00057 6972 ft 116 kts 272°
2026-05-07 14:47 -34.98334 -57.01038 6876 ft 119 kts 271°
2026-05-07 14:47 -34.98305 -57.02044 6931 ft 117 kts 271°
2026-05-07 14:47 -34.98283 -57.03024 7070 ft 115 kts 270°
2026-05-07 14:47 -34.98266 -57.03998 7247 ft 117 kts 270°
2026-05-07 14:48 -34.98252 -57.05022 7436 ft 126 kts 269°
2026-05-07 14:48 -34.98240 -57.06155 7633 ft 142 kts 270°
2026-05-07 14:48 -34.98229 -57.07433 7856 ft 161 kts 269°
2026-05-07 14:48 -34.98218 -57.08875 8151 ft 178 kts 269°
2026-05-07 14:49 -34.98209 -57.10459 8441 ft 196 kts 269°
2026-05-07 14:49 -34.98199 -57.12202 8731 ft 214 kts 269°
2026-05-07 14:49 -34.98189 -57.14088 9019 ft 231 kts 269°
2026-05-07 14:49 -34.98179 -57.16122 9047 ft 248 kts 269°
2026-05-07 14:50 -34.98168 -57.18238 9043 ft 253 kts 269°
2026-05-07 14:50 -34.98156 -57.20401 9052 ft 257 kts 269°
2026-05-07 14:50 -34.98144 -57.22596 9063 ft 260 kts 269°
2026-05-07 14:50 -34.98132 -57.24814 9073 ft 262 kts 269°
2026-05-07 14:51 -34.98119 -57.27038 9084 ft 264 kts 269°
2026-05-07 14:51 -34.98105 -57.29294 9095 ft 265 kts 269°
2026-05-07 14:51 -34.98092 -57.31543 9107 ft 266 kts 269°
2026-05-07 14:51 -34.98077 -57.33773 9117 ft 263 kts 269°
2026-05-07 14:52 -34.98063 -57.35999 9015 ft 263 kts 269°
2026-05-07 14:52 -34.98048 -57.38248 8839 ft 265 kts 269°
2026-05-07 14:52 -34.98033 -57.40476 8665 ft 266 kts 269°
2026-05-07 14:52 -34.98017 -57.42748 8501 ft 266 kts 269°
2026-05-07 14:53 -34.98000 -57.45002 8359 ft 265 kts 270°
2026-05-07 14:53 -34.97984 -57.47247 8218 ft 265 kts 270°
2026-05-07 14:53 -34.97967 -57.49471 8075 ft 265 kts 270°
2026-05-07 14:53 -34.97949 -57.51727 7945 ft 264 kts 270°
2026-05-07 14:54 -34.97931 -57.53964 7815 ft 264 kts 270°
2026-05-07 14:54 -34.97913 -57.56197 7689 ft 263 kts 270°
2026-05-07 14:54 -34.97895 -57.58403 7567 ft 263 kts 270°
2026-05-07 14:54 -34.97876 -57.60632 7447 ft 262 kts 270°
2026-05-07 14:55 -34.97857 -57.62855 7331 ft 262 kts 270°
2026-05-07 14:55 -34.97837 -57.65063 7218 ft 262 kts 270°
2026-05-07 14:55 -34.97817 -57.67278 7110 ft 261 kts 270°
2026-05-07 14:55 -34.97797 -57.69497 7004 ft 261 kts 270°
2026-05-07 14:56 -34.97776 -57.71715 6885 ft 258 kts 270°
2026-05-07 14:56 -34.97755 -57.73855 6639 ft 254 kts 270°
2026-05-07 14:56 -34.97734 -57.76020 6359 ft 250 kts 270°
2026-05-07 14:56 -34.97713 -57.78121 6084 ft 247 kts 270°
2026-05-07 14:57 -34.97692 -57.80175 5811 ft 244 kts 270°
2026-05-07 14:57 -34.97671 -57.82241 5536 ft 243 kts 270°
2026-05-07 14:57 -34.97649 -57.84280 5258 ft 236 kts 270°
2026-05-07 14:57 -34.97628 -57.86268 4980 ft 230 kts 270°
2026-05-07 14:58 -34.97566 -57.88192 4694 ft 227 kts 281°
2026-05-07 14:58 -34.96833 -57.89843 4419 ft 225 kts 309°
2026-05-07 14:58 -34.95712 -57.91128 4334 ft 215 kts 318°
2026-05-07 14:58 -34.94603 -57.92254 4326 ft 205 kts 320°
2026-05-07 14:59 -34.93500 -57.93343 4165 ft 204 kts 320°
2026-05-07 14:59 -34.92388 -57.94428 3989 ft 204 kts 320°
2026-05-07 14:59 -34.91274 -57.95505 3814 ft 204 kts 320°
2026-05-07 14:59 -34.90160 -57.96579 3639 ft 204 kts 321°
2026-05-07 15:00 -34.89048 -57.97648 3464 ft 204 kts 321°
2026-05-07 15:00 -34.87941 -57.98708 3343 ft 201 kts 321°
2026-05-07 15:00 -34.86856 -57.99747 3329 ft 198 kts 321°
2026-05-07 15:00 -34.85769 -58.00787 3329 ft 197 kts 321°
2026-05-07 15:01 -34.84698 -58.01812 3329 ft 196 kts 321°
2026-05-07 15:01 -34.83640 -58.02826 3329 ft 195 kts 321°
2026-05-07 15:01 -34.82561 -58.03857 3329 ft 195 kts 321°
2026-05-07 15:01 -34.81496 -58.04876 3329 ft 195 kts 321°
2026-05-07 15:02 -34.80447 -58.05880 3329 ft 194 kts 321°
2026-05-07 15:02 -34.79383 -58.06896 3329 ft 194 kts 321°
2026-05-07 15:02 -34.78318 -58.07914 3329 ft 194 kts 321°
2026-05-07 15:02 -34.77250 -58.08933 3323 ft 194 kts 321°
2026-05-07 15:03 -34.76196 -58.09941 3310 ft 195 kts 321°
2026-05-07 15:03 -34.75120 -58.10967 3296 ft 195 kts 321°
2026-05-07 15:03 -34.74059 -58.11980 3282 ft 196 kts 321°
2026-05-07 15:03 -34.72977 -58.13012 3267 ft 196 kts 320°
2026-05-07 15:04 -34.71903 -58.14036 3253 ft 196 kts 320°
2026-05-07 15:04 -34.70844 -58.15063 3229 ft 197 kts 315°
2026-05-07 15:04 -34.69973 -58.16358 3174 ft 198 kts 304°
2026-05-07 15:04 -34.69187 -58.17734 3075 ft 198 kts 303°
2026-05-07 15:05 -34.68430 -58.19094 2973 ft 192 kts 302°
2026-05-07 15:05 -34.67685 -58.20436 2868 ft 187 kts 302°
2026-05-07 15:05 -34.66980 -58.21706 2842 ft 169 kts 302°
2026-05-07 15:05 -34.66360 -58.22820 2725 ft 148 kts 302°
2026-05-07 15:06 -34.65814 -58.23804 2614 ft 136 kts 302°
2026-05-07 15:06 -34.65294 -58.24741 2465 ft 132 kts 302°
2026-05-07 15:06 -34.64787 -58.25655 2309 ft 125 kts 302°
2026-05-07 15:06 -34.64314 -58.26507 2153 ft 118 kts 302°
2026-05-07 15:07 -34.63866 -58.27313 1999 ft 113 kts 302°
2026-05-07 15:07 -34.63435 -58.28087 1843 ft 111 kts 301°
2026-05-07 15:07 -34.63005 -58.28861 1730 ft 107 kts 301°
2026-05-07 15:07 -34.62590 -58.29611 1715 ft 108 kts 302°
2026-05-07 15:08 -34.62157 -58.30389 1636 ft 115 kts 302°
2026-05-07 15:08 -34.61701 -58.31210 1544 ft 120 kts 302°
2026-05-07 15:08 -34.61225 -58.32064 1444 ft 123 kts 302°
2026-05-07 15:08 -34.60747 -58.32924 1350 ft 123 kts 303°
2026-05-07 15:09 -34.60263 -58.33790 1245 ft 125 kts 302°
2026-05-07 15:09 -34.59768 -58.34679 1147 ft 128 kts 302°
2026-05-07 15:09 -34.59277 -58.35560 1101 ft 114 kts 302°
2026-05-07 15:09 -34.58876 -58.36279 991 ft 96 kts 301°
2026-05-07 15:10 -34.58518 -58.36922 882 ft 88 kts 301°
2026-05-07 15:10 -34.58179 -58.37529 762 ft 86 kts 303°
2026-05-07 15:10 -34.57809 -58.38102 583 ft 87 kts 302°
2026-05-07 15:10 -34.57483 -58.38712 440 ft 84 kts 298°
2026-05-07 15:11 -34.57186 -58.39284 324 ft 77 kts 300°
2026-05-07 15:11 -34.56891 -58.39821 210 ft 76 kts 300°
2026-05-07 15:11 -34.56597 -58.40365 100 ft 78 kts 300°
2026-05-07 15:11 -34.56304 -58.40890 28 ft 71 kts 302°
2026-05-07 15:12 -34.56063 -58.41325 23 ft 52 kts 304°
2026-05-07 15:12 -34.55888 -58.41649 22 ft 39 kts 302°
2026-05-07 15:12 -34.55755 -58.41883 22 ft 20 kts 309°
2026-05-07 15:12 -34.55678 -58.41863 22 ft 13 kts 106°
2026-05-07 15:13 -34.55718 -58.41781 22 ft 9 kts 117°
2026-05-07 15:13 -34.55745 -58.41719 22 ft 7 kts 119°
2026-05-07 15:13 -34.55765 -58.41674 22 ft 5 kts 116°
2026-05-07 15:13 -34.55782 -58.41627 22 ft 6 kts 103°
2026-05-07 15:14 -34.55751 -58.41576 22 ft 10 kts 33°
2026-05-07 15:14 -34.55726 -58.41499 22 ft 11 kts 117°
2026-05-07 15:14 -34.55761 -58.41421 22 ft 8 kts 121°
2026-05-07 15:14 -34.55759 -58.41388 22 ft 4 kts 57°
2026-05-07 15:15 -34.55731 -58.41360 22 ft 4 kts 32°
2026-05-07 15:15 -34.55726 -58.41356 22 ft 0 kts 32°